Location: Burelles
(49.7822°N, 3.8972°E)
Time: 10:12:29
(UTC+00:00)

Daily predictions for brighter satellites

Satellite Brightness Start Highest point End
(mag) Time Altitude Azimuth Time Altitude Azimuth Time Altitude Azimuth
Meteor 1-27 Rocket 3.9 20:28:19 10° SSW 20:33:54 79° WNW 20:39:28 10° N
Cosmos 2208 Rocket 4.1 20:30:26 10° S 20:35:30 56° ESE 20:40:34 10° NNE
BREEZE-M DEB (TANK) 1.5 20:34:00 10° W 20:36:51 84° S 20:38:50 10° E
SPOT 3 Rocket 3.8 20:34:47 10° SSE 20:39:49 60° ENE 20:44:54 10° N
SL-12 R/B (Aux Motor) 4.5 20:38:30 10° WSW 20:40:42 41° SSE 20:44:34 10° E
Aureole 2 4.4 20:38:15 10° SSW 20:41:08 63° WNW 20:43:55 10° NNE
NOSS 2-2 (D) 4.0 20:39:36 10° WSW 20:42:46 44° NW 20:45:40 10° NNE
YAOGAN 11 4.2 20:38:19 10° NNE 20:42:46 65° ESE 20:47:08 10° S
Cosmos 2082 4.2 20:38:42 10° SW 20:44:17 68° WNW 20:49:54 10° NNE
Cosmos 2227 4.3 20:39:44 10° SSW 20:45:23 64° ESE 20:51:06 10° NE
Okean 3 Rocket 3.9 20:42:10 10° N 20:46:34 54° ENE 20:50:53 10° SSE
Meteor 2-20 Rocket 4.4 20:42:07 10° S 20:47:55 84° E 20:53:58 10° NNE
CZ-4 R/B 3.9 20:45:42 10° SW 20:48:05 16° W 20:50:31 10° NW
Cosmos 2263 Rocket 4.1 20:43:30 10° WSW 20:48:34 35° NW 20:53:39 10° NNE
Helios 1A Rocket 3.4 20:45:49 10° N 20:48:50 44° WNW 20:51:49 10° SW
Ariane Rocket 3.3 20:44:30 10° SSE 20:49:27 56° ENE 20:54:26 10° N
IRS-1C Rocket 4.4 20:44:53 10° SE 20:50:00 57° ENE 20:55:10 10° N
Okean-O 3.1 20:46:14 10° S 20:50:33 61° WSW 20:54:55 10° NNW
Spot 2 Rocket 4.1 20:47:29 10° S 20:52:26 56° W 20:57:27 10° NNW
Cosmos 1805 Rocket 4.2 20:48:43 10° N 20:52:48 40° ENE 20:56:45 11° SE
NOSS 3-2 (A) 3.2 20:51:11 10° SSW 20:56:04 58° SE 21:01:55 10° NE
Cosmos 1340 Rocket 2.8 20:52:29 10° N 20:56:14 61° ENE 20:59:47 11° SSE
Cosmos 1408 Rocket 4.1 20:52:45 10° N 20:56:59 44° ENE 21:01:00 11° SSE
Cosmos 1842 Rocket 3.6 20:53:39 10° S 20:58:05 88° ESE 21:02:33 10° N
Cosmos 1603 3.8 20:52:20 10° NNW 20:58:06 88° WSW 21:03:42 11° SSE
USA 215 3.5 20:51:52 10° ESE 20:58:21 71° NNE 21:04:52 10° WNW
Cosmos 773 Rocket 4.2 20:55:24 10° SSW 21:00:31 78° WNW 21:05:44 10° NNE
BREEZE-M DEB (TANK) 3.2 20:59:52 10° WSW 21:01:08 14° SSW 21:02:13 11° S
Cosmos 1703 4.4 21:04:34 13° SE 21:06:23 19° E 21:08:42 10° NE
USA 245 3.0 21:03:16 10° SSE 21:07:04 80° WSW 21:10:11 10° NNW
Cosmos 1844 Rocket 2.7 21:02:14 10° SSW 21:07:48 89° ESE 21:13:25 10° NNE
Meteor 2-10 Rocket 4.3 21:02:21 10° NNW 21:08:05 61° W 21:13:42 10° S
SL-14 R/B 3.1 21:07:13 10° S 21:10:55 89° ENE 21:14:40 10° N
Cosmos 1553 Rocket 4.3 21:07:44 10° SSE 21:13:55 55° E 21:20:04 10° NNE
CZ-4C R/B 3.7 21:07:43 10° NW 21:14:25 45° WSW 21:22:32 10° S
Cosmos 1833 Rocket 3.6 21:12:24 10° NNW 21:17:45 41° NE 21:22:56 11° ESE
Cosmos 1151 Rocket 3.2 21:14:26 10° S 21:18:39 58° E 21:22:55 10° NNE
Cosmos 2082 Rocket 4.5 21:18:52 10° N 21:22:19 16° NNE 21:25:46 10° ENE
CZ-2C R/B 2.1 21:23:48 19° SSE 21:25:32 56° ENE 21:28:15 10° N
Cosmos 1953 3.3 21:24:09 10° N 21:27:20 29° ENE 21:29:35 16° SE
SL-24 R/B - RUBIN 2 3.8 21:23:54 10° SW 21:28:24 73° NW 21:32:46 10° NE
Cosmos 1844 4.0 21:23:13 10° SW 21:28:59 73° WNW 21:34:49 10° NNE
CZ-4B R/B 3.7 21:24:45 12° S 21:29:27 74° WSW 21:34:40 10° NNW
Okean O Rocket 3.4 21:26:32 10° SSW 21:30:09 26° W 21:33:50 10° NW
Cosmos 1633 Rocket 4.4 21:31:22 10° N 21:35:11 28° ENE 21:38:07 14° ESE
In-Cosmos 22 4.5 21:30:00 10° SSW 21:35:44 74° WNW 21:41:32 10° N
NOSS 3-2 (C) 3.4 21:32:45 10° SSW 21:37:30 45° ESE 21:43:07 10° NE
Cosmos 1461 3.5 21:39:51 10° NW 21:43:03 33° WSW 21:45:06 18° S
NOSS 2-3 (C) 4.2 21:42:37 21° SE 21:43:29 23° ESE 21:46:21 10° ENE
CZ-4B R/B 4.0 21:42:34 10° SSW 21:46:02 35° W 21:49:42 10° NNW
Cosmos 1745 Rocket 4.2 21:40:01 10° N 21:46:13 63° ENE 21:51:04 17° SSE
Cosmos 1500 Rocket 4.0 21:49:10 10° NNW 21:53:25 55° W 21:56:48 15° S
Helios 1A 3.6 21:51:55 10° NNE 21:55:34 35° E 21:57:27 22° SSE
Cosmos 2344 4.0 21:48:48 10° S 21:55:56 38° ESE 22:02:26 10° NE
GP-B 3.2 21:53:31 10° N 21:57:54 72° W 22:01:23 16° SSW
Iridium 4 Rocket 3.5 21:55:05 15° S 21:59:36 88° E 22:04:40 10° N
Helios 1B rocket 3.4 21:57:42 17° ESE 21:59:36 28° ENE 22:02:36 10° N
Cosmos 1607 4.3 21:54:40 10° NW 22:00:56 58° WSW 22:05:32 19° SSE
ARIANE 5 R/B 4.1 21:59:12 14° ESE 22:02:14 28° ENE 22:06:01 10° N
SWARM C 4.4 22:00:46 10° N 22:04:01 88° W 22:05:40 26° S
SWARM A 4.1 22:00:56 10° N 22:04:10 77° E 22:05:43 28° S
Cosmos 1470 Rocket 4.5 22:02:55 10° N 22:07:06 38° ENE 22:09:41 20° SE
Cosmos 1420 Rocket 4.3 22:04:27 10° NNW 22:09:39 60° ENE 22:13:10 20° SE
NOSS 2-3 (D) 3.0 22:07:03 11° SSW 22:10:37 67° SE 22:14:25 10° NE
Cosmos 1417 Rocket 4.5 22:06:19 17° S 22:11:20 78° E 22:17:39 10° NNE
ALOS 2 3.9 22:11:55 16° ESE 22:14:43 30° ENE 22:18:35 10° N
Cosmos 1538 Rocket 3.9 22:11:36 15° SSW 22:15:56 77° ESE 22:21:11 10° NNE
Cosmos 2315 Rocket 4.1 22:13:38 20° SSE 22:17:58 61° E 22:24:06 10° NNE
Cosmos 1943 Rocket 3.2 22:16:33 21° SE 22:19:06 30° ESE 22:23:55 10° NE
CENTAUR R/B 4.5 22:14:11 10° W 22:19:53 35° NNW 22:26:54 10° NE
Iridium 45 4.4 22:18:35 26° SSW 22:20:05 61° W 22:23:07 10° N
Meteor 1-21 4.5 22:18:13 22° SSE 22:21:42 54° E 22:27:12 10° NNE
Cosmos 1328 Rocket 3.5 22:24:39 24° S 22:27:14 80° E 22:31:35 10° NNE
CZ-2C R/B 4.3 22:23:03 10° NNE 22:27:32 42° E 22:29:46 25° SSE
Lacrosse 5 rocket 1.5 22:30:44 33° SSE 22:31:05 34° SE 22:34:19 10° ENE
Cosmos 1666 Rocket 3.7 22:30:49 10° NNW 22:35:09 66° W 22:37:29 26° S
CZ-2C R/B 4.2 22:31:43 10° ESE 22:35:49 25° ENE 22:40:02 10° N
NOSS 2-3 (E) 3.4 22:34:36 10° SW 22:38:13 68° NW 22:42:06 10° NE
Cosmos 1371 Rocket 4.4 22:35:03 10° NNW 22:40:16 57° ENE 22:43:38 21° SE
USA 215 3.5 22:37:29 22° SSE 22:41:34 50° SW 22:47:55 10° WNW
GEOS 3 Rocket 3.7 22:45:16 23° SE 22:48:42 78° SW 22:54:08 10° NW
Timation 1 Rocket 4.4 22:45:17 10° NW 22:51:15 71° WSW 22:54:45 26° SSE
S3M 4.3 22:48:42 16° SSW 22:53:32 63° WNW 22:59:39 10° N
NOSS 2-1 (D) 4.4 22:55:58 22° ESE 22:55:58 22° ESE 22:58:06 10° ENE
Cosmos 1515 Rocket 3.6 22:55:38 31° S 22:57:34 68° E 23:01:54 10° NNE
Cosmos 2184 Rocket 4.4 22:52:43 10° N 22:58:53 56° ENE 23:02:54 22° SE
CSL-04 DEB 4.1 22:57:32 37° S 22:58:54 83° WSW 23:02:36 10° NNW
ARGOS Delta rocket 4.1 22:53:39 10° N 22:59:04 86° WNW 23:02:18 24° SSW
USA 59 Rocket 0.4 23:01:29 29° ESE 23:01:29 29° ESE 23:04:02 10° ENE
Cosmos 1833 Rocket 3.4 22:56:25 10° NW 23:01:40 40° WSW 23:04:36 23° SSW
Spot 4 3.8 22:59:30 29° SSE 23:02:00 85° WSW 23:06:52 10° NNW
Cosmos 1953 3.9 22:59:18 10° NW 23:02:05 21° W 23:03:47 16° SW
Meteor 1-16 Rocket 4.4 23:00:03 10° NNW 23:05:28 61° W 23:08:42 25° SSW
SAR-Lupe-2 4.1 23:05:49 31° ESE 23:06:53 43° ENE 23:09:58 10° N
Cosmos 2082 Rocket 2.7 23:02:07 10° NNW 23:07:42 57° NE 23:11:51 18° SE
Okean 3 3.5 23:09:18 35° SSE 23:10:43 58° E 23:14:39 10° NNE
Meteor 1-23 Rocket 4.5 23:07:55 20° SSW 23:11:47 64° WNW 23:17:21 10° N
Cosmos 1633 Rocket 4.2 23:08:54 10° NNW 23:12:50 33° W 23:15:02 21° SW
Cosmos 2278 Rocket 2.4 23:09:54 27° S 23:12:51 57° ESE 23:18:24 10° NE
Cosmos 1400 Rocket 2.6 23:20:41 10° NNW 23:24:22 73° W 23:25:30 41° S
Cosmos 1624 Rocket 4.1 23:19:21 10° NNW 23:24:36 67° WSW 23:27:15 30° S
Cosmos 1680 Rocket 3.5 23:22:43 25° SSW 23:25:50 85° WNW 23:31:04 10° NNE
COSMOS 2406 4.3 23:20:29 10° NNW 23:25:53 41° NE 23:31:14 10° ESE
CZ-2C R/B 3.4 23:21:24 10° NNE 23:26:56 60° E 23:29:38 29° S
Cosmos 494 Rocket 3.9 23:24:38 27° SSW 23:27:35 85° ESE 23:32:51 10° NNE
NOSS 3-2 (C) 4.4 23:23:15 10° WSW 23:28:20 45° NNW 23:34:28 10° NE
Cosmos 2056 Rocket 3.7 23:26:20 10° NNW 23:31:20 56° WSW 23:33:38 30° S
Helios 1B rocket 3.6 23:31:35 21° WSW 23:32:31 23° W 23:35:21 10° NW
Cosmos 1048 Rocket 4.4 23:31:19 29° SSE 23:33:37 49° ESE 23:38:40 10° NNE
Cosmos 1328 4.3 23:35:16 33° SE 23:36:11 40° E 23:39:32 10° NNE
Cosmos 1812 3.6 23:34:51 10° NNW 23:35:32 19° NNW 23:35:32 19° NNW
ARIANE 5 R/B 3.5 23:36:34 26° SW 23:38:24 39° W 23:42:35 10° NNW
ACS3 Solar Sail 2.4 23:34:44 10° NNE 23:40:05 40° E 23:43:12 23° SSE
USA 238 DEB 3.5 23:36:16 19° SW 23:40:50 82° SE 23:47:40 10° NE
USA 238 3.5 23:36:31 19° SW 23:41:03 81° SE 23:47:52 10° NE
Lacrosse 4 Rocket 4.4 23:39:35 10° N 23:41:46 14° NNE 23:43:56 10° ENE
Cosmos 546 4.4 23:46:11 16° WSW 23:49:08 75° SSE 23:52:55 10° ENE
BREEZE-M DEB (TANK) 3.4 23:36:22 10° W 23:49:33 88° SSW 23:53:32 10° E
ALOS 2 3.6 23:49:18 25° SW 23:51:00 34° W 23:55:01 10° NNW
Cosmos 1933 Rocket 4.2 23:48:07 10° NNW 23:52:12 43° W 23:53:53 29° SW
Cosmos 1441 Rocket 3.1 23:54:17 40° SW 23:55:08 55° WNW 23:58:20 10° N
